Regional Weather Roundup
Issued by NWS Charleston, SC

Current Version | Previous Version | Text Only | Print | Product List | Glossary Off
Versions: 1 2 3 4 5 6 7 8 9 10 11 12 13 14 15 16 17 18 19 20 21 22 23 24 25 26 27 28 29 30 31 32 33 34 35 36 37 38 39 40 41 42 43 44 45 46 47 48 49 50

000
ASUS42 KCHS 131625
RWRCHS

REGIONAL WEATHER ROUNDUP
NATIONAL WEATHER SERVICE CHARLESTON SC
1200 PM EDT SUN JUL 13 2014

NOTE: "FAIR" INDICATES FEW OR NO CLOUDS BELOW 12,000 FEET WITH NO
SIGNIFICANT WEATHER AND/OR OBSTRUCTIONS TO VISIBILITY.

NOT ALL STATIONS ARE QUALITY CONTROLLED BY THE NATIONAL
WEATHER SERVICE. USE DATA WITH CAUTION...ESPECIALLY
DEWPOINT OBSERVATIONS.

SCZ027-030-031-034>040-042>050-131700-
...SOUTH CAROLINA...

CITY           SKY/WX    TMP DP  RH WIND       PRES   REMARKS
N CHARLESTON   TSTM      79  72  78 S18       30.17R
WATERFRONT PRK   N/A     79 N/A N/A S12G20      N/A
FORT JOHNSON   NOT AVBL
MOUNT PLEASANT RAIN      77  75  94 S6        30.17R VSB 3/4
JOHNS ISLAND   CLOUDY    75  66  73 CALM      30.19R HAZE
PINOPOLIS        N/A     88  72  58 CALM      30.08F HX  94
MONCKS CORNER    N/A     86  73  66 N3        30.15S HX  93
SUMMERVILLE    PTSUNNY   84  73  70 SE3       30.16F HX  91
BEAUFORT MCAS  LGT RAIN  76  73  91 SE3       30.17F
BEAUFORT ARPT  PTSUNNY   77  73  88 NE3       30.16F
HILTON HEAD IS PTSUNNY   77  72  83 N5        30.18F
GEORGETOWN     NOT AVBL
WALTERBORO     PTSUNNY   81  77  89 S9        30.17R
ORANGEBURG     MOSUNNY   86  68  54 CALM      30.15S
BARNWELL       PTSUNNY   88  70  55 SW8       30.15F HX  92
AIKEN          FAIR      86  72  62 SW5       30.19S HX  92
MANNING        CLOUDY    86  72  62 CALM      30.15S HX  92
KINGSTREE      NOT AVBL
COLUMBIA       PTSUNNY   86  68  54 VRB3      30.14F
SUMTER         MOSUNNY   87  70  56 VRB2      30.13F HX  91
FLORENCE       MOSUNNY   86  70  58 SW7       30.14F HX  90
MYRTLE BEACH   MOSUNNY   84  73  70 S14       30.15S HX  91
N MYRTLE BEACH MOSUNNY   84  73  69 S8        30.15R HX  90

$$

GAZ063-065-086>088-099>101-113>116-118-119-134-136>141-150-131700-
...GEORGIA...

CITY           SKY/WX    TMP DP  RH WIND       PRES   REMARKS
SAVANNAH ARPT  PTSUNNY   82  72  71 CALM      30.17S
HUNTER AAF     PTSUNNY   82  73  74 NE6       30.14F
FORT STEWART   PTSUNNY   77  73  88 CALM      30.15S
STATESBORO     NOT AVBL
SYLVANIA       MOSUNNY   84  73  70 CALM      30.17S HX  90
CLAXTON        FAIR      86  72  62 W3        30.15F HX  92
THOMSON        MOSUNNY   86  74  66 CALM      30.20F HX  94
AUGUSTA-BUSH   PTSUNNY   85  68  56 VRB3      30.14F
AUGUSTA-DANIEL MOSUNNY   85  69  58 CALM      30.16F
SWAINSBORO     PTSUNNY   86  73  66 W3        30.16S HX  93
VIDALIA          N/A     86  70  58 SW6       30.16F HX  90
ALMA           PTSUNNY   84  70  62 S3        30.16S
WAYCROSS       MOSUNNY   83  76  79 N6        30.16F HX  92
JESUP          NOT AVBL
BRUNSWICK      CLOUDY    81  73  78 CALM      30.16F
SAINT SIMONS   CLOUDY    80  75  84 N5        30.15F

$$

SCZ027-028-034-036>038-045-046-048>050-GAZ119-141-131700-
...LAKE AND SUPPLEMENTAL COASTAL OBSERVATIONS...

STATION/POSITION TIME  TEMP    WIND        PRES    WAVE   SWELL
                       AIR SEA DIR/SP/G            HT/PER HT/PER/DIR
                 (UTC) (F)     (DEG/KT/KT) (MB)    (FT/S) (FT/S/D)
UPR LAKE MARION  NOT AVBL
WINYAH BAY       1500   82     340/  2     1021.0S
LAKE MURRAY      1500   85     180/  4/  5 1020.3F
ACE BASIN NERRS  1500   75        CALM     1022.0S
FORT PULASKI     1600   78 77   70/  4/  6   N/A
SAPELO ISLAND    1600   80     360/  5     1021.0F

$$

ANZ835-935-AMZ111-154-330-350-352-354-374-450-454-472-131700-
...C-MAN AND BUOY OBSERVATIONS...

STATION/POSITION TIME  TEMP    WIND        PRES    WAVE   SWELL
                       AIR SEA DIR/SP/G            HT/PER HT/PER/DIR
                 (UTC) (F)     (DEG/KT/KT) (MB)    (FT/S) (FT/S/D)
FOLLY BEACH CMAN 1600   75     220/ 10/ 11 1022.3R
BUOY 41004       1600   77 82  220/ 10/ 10 1021.3R   2/ 7   2/ 7
BUOY 41008       1600   78 83  360/  2/  4 1021.0F   2/ 8   2/100/ 8
5E ST. MARYS GA  1600      83                N/A     2/ 7
FRYING PAN BUOY  NOT AVBL
BUOY 41025       1600             CALM     1021.0F   2/ 7
CAPE LOOKOUT NC  1600   81     210/  5/  7 1021.1S
BUOY 41002       1521   81 84  310/  4/  6 1022.6R   2/ 8   2/140/ 8
BUOY 41010       1600   83 83  150/  4/  6 1021.1R   3/ 8   3/140/ 8
BUOY 41012       NOT AVBL
ST AUGUSTINE FL  1600   81      40/  8/  9 1021.4R
CAPERS NEARSHORE 1500   81      10/  4/  6   N/A
FRIPP NEARSHORE  1500   75      90/  6/  8   N/A


$$



USA.gov is the U.S. government's official web portal to all federal, state and local government web resources and services.